Regional Weather Roundup
Issued by NWS Upton, NY

Current Version | Previous Version | Graphics & Text | Print | Product List | Glossary Off
Versions: 1 2 3 4 5 6 7 8 9 10 11 12 13 14 15 16 17 18 19 20 21 22 23 24 25 26 27 28 29 30 31 32 33 34 35 36 37 38 39 40 41 42 43 44 45 46 47 48 49 50
216 ASUS41 KOKX 050104 RWROKX REGIONAL WEATHER ROUNDUP NATIONAL WEATHER SERVICE NEW YORK NY 800 PM EST THU FEB 04 2016 NOTE: "FAIR" INDICATES FEW OR NO CLOUDS BELOW 12,000 FEET WITH NO SIGNIFICANT WEATHER AND/OR OBSTRUCTIONS TO VISIBILITY. NYZ071-072-176-178-NJZ106-104-050200- NEW YORK CITY METRO AREA CITY SKY/WX TMP DP RH WIND PRES REMARKS CENTRAL PARK CLOUDY 49 28 44 CALM 30.08F LAGUARDIA APRT LGT RAIN 49 33 54 NE8 30.05F KENNEDY INTL CLOUDY 49 36 61 NE8 30.06S NEWARK/LIBERTY CLOUDY 49 28 44 N13 30.07S BRNX BOT. GARD N/A 48 32 53 N10 30.07F TETERBORO CLOUDY 48 28 46 N9 30.05F $$ NYZ177-179-078>081-050200- LONG ISLAND NEW YORK CITY SKY/WX TMP DP RH WIND PRES REMARKS FARMINGDALE CLOUDY 48 38 68 N8 30.06S ISLIP LGT RAIN 46 37 71 N10 30.04S SHIRLEY CLOUDY 45 41 86 N5 30.08R RIVERHEAD N/A 45 37 76 E1 30.08F WESTHAMPTON LGT RAIN 45 42 89 N3 30.08F EAST HAMPTON DRIZZLE 44 41 86 N5 30.06R MONTAUK POINT N/A 45 41 86 CALM 30.08R $$ NYZ052-065-067-050200- HUDSON VALLEY CITY SKY/WX TMP DP RH WIND PRES REMARKS WHITE PLAINS CLOUDY 45 28 51 N8 30.06R NEWBURGH CLOUDY 43 30 61 VRB5 30.10R MONTGOMERY CLOUDY 38 29 70 N7 30.08R WCI 33 POUGHKEEPSIE CLOUDY 42 27 55 NE6 30.10R ALBANY CLOUDY 37 25 61 W8 30.13R WCI 31 $$ NJZ001-105-106-008-010-013-015-019>022-104-050200- NEW JERSEY CITY SKY/WX TMP DP RH WIND PRES REMARKS NEWARK/LIBERTY CLOUDY 49 28 44 N13 30.07S TETERBORO CLOUDY 48 28 46 N9 30.05F CALDWELL CLOUDY 46 28 49 CALM 30.08R MORRISTOWN CLOUDY 45 30 57 N6 30.07S SOMERVILLE CLOUDY 44 29 55 N5 30.05F SUSSEX CLOUDY 39 28 64 CALM 30.08S ANDOVER N/A 36 31 82 CALM 30.08S TRENTON CLOUDY 45 31 58 N8 30.05F MILLVILLE LGT RAIN 44 38 79 CALM 30.06R ATLANTIC CITY RAIN 44 40 85 CALM 30.07R FOG WRIGHTSTOWN CLOUDY 44 44 99 NW2 30.03S TOMS RIVER CLOUDY 43 37 81 NW3 30.05F BELMAR CLOUDY 45 36 70 N5 30.02F $$ PAZ047>061-062-071-050200- EASTERN PENNSYLVANIA CITY SKY/WX TMP DP RH WIND PRES REMARKS PHILADELPHIA NOT AVBL ALLENTOWN CLOUDY 39 28 64 N5 30.08S SCRANTON MOCLDY 36 26 67 CALM 30.08F $$ CTZ002-004>006-009-010-012-RIZ004-006-007-MAZ004-011-015-050200- SOUTHERN NEW ENGLAND IN CT CITY SKY/WX TMP DP RH WIND PRES REMARKS BRADLEY INTL CLOUDY 43 24 47 NW8 30.09R HARTFORD LGT RAIN 46 24 42 N12 30.09S DANBURY CLOUDY 43 27 53 NE8 30.10R WTRBRY/OXFORD CLOUDY 43 23 45 N12 30.08S BRIDGEPORT CLOUDY 47 32 56 N10 30.07F MERIDEN LGT RAIN 45 28 51 N7 30.09R NEW HAVEN CLOUDY 46 30 53 N13 30.07S CHESTER LGT RAIN 45 30 57 N8 30.07F GROTON LGT RAIN 46 36 68 NW9 30.07R WILLIMANTIC CLOUDY 46 28 49 NW7 30.09R IN RI CITY SKY/WX TMP DP RH WIND PRES REMARKS PROVIDENCE CLOUDY 47 34 60 N6 30.07S BLOCK ISLAND CLOUDY 45 39 81 N6 30.06R WESTERLY CLOUDY 45 39 79 CALM 30.07R IN MA CITY SKY/WX TMP DP RH WIND PRES REMARKS BOSTON CLOUDY 48 30 49 NW10 30.05F WORCESTER CLOUDY 40 27 59 NW12 30.06F WCI 33 WESTFIELD CLOUDY 41 26 55 NW6 30.09S PROVINCETOWN LGT RAIN 45 44 97 N3 30.06S NANTUCKET HVY RAIN 48 46 93 NE7 30.03F FOG $$ ANZ330-335-338-340-345-350-353-355-050200- COASTAL MARINE OBSERVATIONS STATION/POSITION TIME SKY/WX TEMP WIND PRES VSBY WAVE AIR SEA DIR/SP/G HT/PER (UTC) (F) (DEG/KT/KT) (MB) (MI) (FT/S) NY HARB ENTRANCE 2350 46 45 130/ 2/ 4 1017.6 5/ 8 4S FIRE IS NOT AVBL 20S FIRE ISLAND 2350 44 42 330/ 2/ 4 1017.7 6/ 9 GREAT SOUTH BAY NOT AVBL 23SW MTP 0050 45 45 360/ 2/ 6 1017.5 7/10 HUDSON CANYON 2350 48 51 1017.2 7/ 9 KINGS POINT 0000 47 40 70/ 4/ 6 1017.8 EXECUTION ROCKS NOT AVBL CENTRAL LI SOUND 0000 45 10/ 8/ 10 N/A 0 EASTERN LI SOUND 0000 46 43 350/ 8/ 10 N/A ROBBINS REEF 0000 49 340/ 5/ 6 1017.5 $$ >>>>>>>>>>>>>>>>>>>>>>>>>>>> KEY <<<<<<<<<<<<<<<<<<<<<<<<<<< > < > SKY/WX - SKY CONDITION/PRESENT WEATHER < > TMP - TEMPERATURE IN FAHRENHEIT < > DP - DEWPOINT IN FAHRENHEIT < > RH - RELATIVE HUMIDITY IN PERCENT < > WIND - DIRECTION AND SPEED IN MPH < > PRES - MEAN SEA LEVEL PRESSURE IN INCHES OF HG < > WCI - WIND CHILL INDEX < > VSB - VISIBILITY IN MILES < > HX - HEAT INDEX < > TC - TEMPERATURE IN CELSIUS < > VRB - VARIABLE WIND DIRECTION < > < >>>>>>>>>>>>>>>>>>>>>>>>>>>> KEY <<<<<<<<<<<<<<<<<<<<<<<<<<<

USA.gov is the U.S. government's official web portal to all federal, state and local government web resources and services.